Location: Casilda
(33.0440°S, 61.1680°W)
Time: 15:32:01
(UTC-03:00)

ISS - Pass Details

Date: 16 June 2021
Orbit: 417 x 422 km, 51.6° (Epoch: 16 June)

Event Time Altitude Azimuth Distance (km) Brightness Sun altitude
Rises 19:15:07 0° 350° (N) 2,356 0.5 -14.4°
Reaches altitude 10° 19:17:43 10° 11° (N) 1,503 -0.9 -14.9°
Enters shadow 19:19:55 17° 52° (NE) 1,166 -1.8 -15.3°
